TimeMDT,TemperatureF,Dew PointF,Humidity,Sea Level PressureIn,VisibilityMPH,Wind Direction,Wind SpeedMPH,Gust SpeedMPH,PrecipitationIn,Events,Conditions,WindDirDegrees,DateUTC
12:56 AM,33.1,32.0,96,29.98,-9999.0,Calm,Calm,-,N/A,,Unknown,0,2013-05-18 06:56:00
1:56 AM,30.9,30.0,96,29.96,-9999.0,Calm,Calm,-,N/A,,Unknown,0,2013-05-18 07:56:00
2:56 AM,32.0,30.9,96,29.96,-9999.0,Calm,Calm,-,N/A,,Unknown,0,2013-05-18 08:56:00
3:56 AM,34.0,32.0,92,29.94,-9999.0,Calm,Calm,-,N/A,,Unknown,0,2013-05-18 09:56:00
4:56 AM,34.0,33.1,96,29.94,-9999.0,Calm,Calm,-,N/A,,Unknown,0,2013-05-18 10:56:00
5:56 AM,35.1,34.0,96,29.93,-9999.0,Calm,Calm,-,N/A,,Unknown,0,2013-05-18 11:56:00
6:56 AM,36.0,34.0,93,29.94,-9999.0,Calm,Calm,-,0.03,,Unknown,0,2013-05-18 12:56:00
7:56 AM,37.9,36.0,93,29.94,-9999.0,Calm,Calm,-,0.02,,Unknown,0,2013-05-18 13:56:00
8:56 AM,37.9,36.0,93,29.95,-9999.0,Variable,3.5,-,0.01,,Unknown,0,2013-05-18 14:56:00
9:56 AM,36.0,34.0,93,29.97,-9999.0,Calm,Calm,-,N/A,,Unknown,0,2013-05-18 15:56:00
10:56 AM,37.9,35.1,89,29.98,-9999.0,Calm,Calm,-,N/A,,Unknown,0,2013-05-18 16:56:00
11:56 AM,39.0,35.1,86,29.97,-9999.0,ESE,3.5,-,N/A,,Unknown,110,2013-05-18 17:56:00
12:56 PM,39.0,35.1,86,29.97,-9999.0,Calm,Calm,-,0.05,,Unknown,0,2013-05-18 18:56:00
1:56 PM,39.0,37.0,93,29.98,-9999.0,Calm,Calm,-,0.05,,Unknown,0,2013-05-18 19:56:00
2:56 PM,37.9,36.0,93,30.00,-9999.0,Variable,4.6,-,0.04,,Unknown,0,2013-05-18 20:56:00
3:56 PM,41.0,37.0,86,29.97,-9999.0,Calm,Calm,-,0.01,,Unknown,0,2013-05-18 21:56:00
4:56 PM,37.0,35.1,93,30.01,-9999.0,Calm,Calm,-,0.06,,Unknown,0,2013-05-18 22:56:00
5:56 PM,36.0,34.0,93,30.02,-9999.0,Calm,Calm,-,0.07,,Unknown,0,2013-05-18 23:56:00
6:56 PM,36.0,34.0,93,30.02,-9999.0,Calm,Calm,-,0.04,,Unknown,0,2013-05-19 00:56:00
7:56 PM,36.0,34.0,93,30.03,-9999.0,Calm,Calm,-,0.02,,Unknown,0,2013-05-19 01:56:00
8:56 PM,36.0,34.0,93,30.03,-9999.0,Calm,Calm,-,0.03,,Unknown,0,2013-05-19 02:56:00
9:56 PM,36.0,34.0,93,30.04,-9999.0,Calm,Calm,-,0.01,,Unknown,0,2013-05-19 03:56:00
10:56 PM,35.1,34.0,96,30.02,-9999.0,Calm,Calm,-,N/A,,Unknown,0,2013-05-19 04:56:00
11:56 PM,35.1,34.0,96,30.02,-9999.0,Calm,Calm,-,0.01,,Unknown,0,2013-05-19 05:56:00